Torna al catalogo

STARLINK-34818

AttivoComunicazioniSSO
NORAD 65238·PAYLOAD·🇺🇸 United States

Lanciato Aug 18, 2025 da Vandenberg Space Force Base

Loading…

Prossimi Passaggi (prossime 24 ore)

TLE

AggiornatoSource: CelesTrak SupGP

Epoca: Sep 15, 2026, 03:59 UTC

1 65238C 25179D   26258.16645833 -.00035680  00000+0 -11077-2 0  2586
2 65238  97.2834 297.4885 0001001 100.3216 127.1673 15.33454226    10

Traccia STARLINK-34818 in tempo reale con AllMySat

Download on the App Store